Regional Weather Roundup
Issued by NWS

Home | Current Version | Previous Version | Text Only | Print | Product List | Glossary Off
Versions: 1 2 3 4 5 6 7 8 9 10 11 12 13 14 15 16 17 18 19 20 21 22 23 24 25 26 27 28 29 30 31 32 33 34 35 36 37 38 39 40 41 42 43 44 45 46 47 48 49 50

000
ASUS44 KMEG 021210
RWRTN
TENNESSEE HOURLY STATE WEATHER ROUNDUP
NATIONAL WEATHER SERVICE MEMPHIS TN
700 AM CDT TUE JUN 02 2015

TNZ002-004-019-021-049-052-054-088>092-021300-
WEST TENNESSEE

CITY           SKY/WX    TMP DP  RH WIND       PRES   REMARKS
MEMPHIS INTL   CLOUDY    63  61  94 N6        30.08R FOG
NWS MEMPHIS      N/A     62 N/A N/A MISG        N/A
JACKSON        CLOUDY    63  60  90 N7        30.08R
DYERSBURG      CLOUDY    63  46  55 N5        30.11R
PARIS          CLOUDY    57  57 100 NE5       30.10R
LEXINGTON      CLOUDY    61  59  94 NE7       30.07R
$$

TNZ008-025-027-028-033-062-065-066-021300-
NORTH MIDDLE TENNESSEE

CITY           SKY/WX    TMP DP  RH WIND       PRES   REMARKS
NASHVILLE      CLOUDY    61  58  90 N9        30.09R
CLARKSVILLE    CLOUDY    60  57  89 NE8       30.10R FOG
SMYRNA         CLOUDY    62  59  90 N6        30.09R
COOKEVILLE     CLOUDY    61  61 100 N5        30.07R
CROSSVILLE     CLOUDY    63  60  90 CALM      30.08R
$$

TNZ061-075-076-078-094-096-097-021300-
SOUTH MIDDLE TENNESSEE

CITY           SKY/WX    TMP DP  RH WIND       PRES   REMARKS
FAYETTEVILLE   CLOUDY   N/A N/A N/A MISG      30.07R
TULLAHOMA      CLOUDY    61  61 100 N5        30.08R VSB 3/4
WINCHESTER     CLOUDY    64  63  94 N3        30.07R
MCMINNVILLE    CLOUDY    63  63 100 N6        30.07R
COLUMBIA       CLOUDY    61  61 100 N3        30.06S
SHELBYVILLE    CLOUDY    63  63 100 N7        30.08R
$$

TNZ017-018-042-046-047-021300-
NORTHEAST TENNESSEE

CITY           SKY/WX    TMP DP  RH WIND       PRES   REMARKS
TRI CITIES     CLOUDY    64  63  96 CALM      30.07R FOG
ELIZABETHTON   CLOUDY    63  61  94 CALM      30.07R
$$

TNZ012-013-036-069-073-074-021300-
CENTRAL EAST TENNESSEE

CITY           SKY/WX    TMP DP  RH WIND       PRES   REMARKS
KNOXVILLE      CLOUDY    65  62  90 CALM      30.05R
OAK RIDGE      CLOUDY    65  62  90 E3        30.07R
GATLINBURG     CLOUDY    63  61  94 CALM      30.05R
MORRISTOWN       N/A     64  64 100 CALM      30.07R
$$

TNZ083-085-099-021300-
SOUTHEAST TENNESSEE

CITY           SKY/WX    TMP DP  RH WIND       PRES   REMARKS
CHATTANOOGA    PTSUNNY   66  63  90 W5        30.05R
$$

SKY/WX REPORTED AS FAIR MEANS FEW OR NO CLOUDS BELOW
12 THOUSAND FEET.



USA.gov is the U.S. government's official web portal to all federal, state and local government web resources and services.